Temp
57 55 55 53 52 50 48 46 46 46 46 46 46 46 46 44 44 44 42 43 42 43
55 53 52 50 49 48 46 48 46 46 45 45 45 45 45 42 41 42 41 41 41 40
52 51 49 48 46 46 45 46 46 45 44 44 44 44 44 42 41 41 40 41 39 38
48 47 47 46 45 45 45 46 45 45 44 44 43 44 42 41 41 40 39 39 38 37
46 46 45 44 45 45 44 45 45 45 44 44 44 42 41 40 40 38 37 37 36 35
43 43 43 43 44 45 45 44 44 44 43 43 42 41 40 40 39 37 36 36 33 31
41 42 41 41 43 44 44 43 43 43 42 41 41 41 42 41 38 36 35 34 32 29
40 41 41 40 41 42 43 43 43 41 40 39 38 35 32 37 35 34 33 33 32 30
39 39 36 35 35 39 41 39 39 38 37 33 34 32 34 36 34 32 30 30 30 29
34 33 33 35 37 36 36 35 32 31 30 28 27 31 33 34 30 28 26 25 26 28
34 32 33 32 32 32 32 32 30 30 30 27 26 30 31 32 25 22 26 21 20 19
33 32 32 31 30 31 31 30 29 28 28 25 20 29 28 25 23 22 22 18 16 15
32 32 30 30 30 31 31 30 30 29 30 29 20 28 28 26 24 21 21 21 17 25
32 31 30 30 31 31 30 29 28 28 28 26 22 20 27 27 25 25 23 23 19 13
MSLP
1015.37 1015.98 1016.73 1017.54 1018.24 1019.16 1020.11 1020.84 1021.33 1021.57 1021.82 1021.94 1021.82 1022.02 1021.76 1022.16 1022.44 1022.39 1022.38 1022.54 1022.60 1022.56
1016.26 1016.88 1017.59 1018.24 1018.91 1019.55 1020.40 1021.23 1021.19 1021.56 1021.87 1022.01 1022.05 1022.03 1022.08 1022.51 1022.70 1022.59 1022.72 1023.07 1023.11 1022.98
1017.20 1017.65 1018.30 1018.90 1019.53 1020.10 1020.54 1020.89 1021.27 1021.59 1021.92 1022.10 1022.20 1022.08 1022.52 1022.70 1022.90 1022.65 1023.14 1023.42 1023.62 1023.38
1018.10 1018.53 1018.94 1019.28 1019.77 1020.43 1020.60 1021.22 1021.14 1021.06 1021.77 1022.06 1022.13 1022.34 1022.73 1023.11 1023.28 1023.13 1023.53 1023.57 1023.93 1024.11
1018.77 1019.35 1019.50 1019.91 1020.13 1020.53 1021.12 1021.37 1021.12 1021.42 1021.85 1022.22 1022.21 1022.81 1023.19 1023.19 1023.57 1023.57 1023.74 1023.96 1024.33 1024.69
1019.02 1019.01 1019.72 1020.19 1020.55 1021.17 1021.20 1021.46 1021.25 1021.65 1021.85 1022.59 1022.80 1023.20 1023.35 1023.56 1023.82 1024.17 1024.59 1024.86 1025.53 1025.83
1018.53 1019.14 1019.70 1020.58 1020.28 1021.09 1021.22 1021.46 1021.66 1021.72 1022.51 1022.92 1023.11 1023.19 1023.44 1023.92 1024.23 1024.65 1025.18 1025.42 1026.11 1026.58
1019.02 1019.37 1019.91 1020.04 1020.22 1020.95 1021.35 1021.88 1021.91 1022.32 1023.12 1023.09 1023.41 1024.14 1024.55 1024.53 1024.83 1025.19 1025.57 1025.88 1026.17 1026.91
1019.02 1019.79 1019.69 1020.30 1020.87 1020.91 1021.45 1021.88 1022.24 1022.93 1023.21 1023.65 1024.19 1025.22 1025.32 1024.53 1025.36 1025.99 1026.03 1026.26 1026.73 1027.21
1019.42 1020.14 1020.23 1020.55 1021.02 1021.29 1021.83 1022.55 1023.18 1023.41 1023.95 1024.55 1025.22 1025.60 1025.48 1025.57 1026.18 1026.64 1027.05 1027.08 1027.63 1027.84
1019.11 1019.93 1020.53 1020.90 1021.46 1021.97 1022.39 1023.35 1023.76 1023.98 1024.49 1025.25 1025.99 1026.04 1026.18 1026.20 1026.74 1027.18 1027.47 1028.03 1028.53 1028.68
1018.51 1019.66 1020.41 1021.00 1021.66 1022.33 1022.82 1023.64 1023.97 1024.42 1024.79 1025.51 1026.37 1026.35 1026.82 1026.93 1026.96 1027.31 1027.73 1028.65 1028.96 1029.16
1018.67 1019.44 1020.26 1020.93 1021.71 1022.50 1023.08 1023.56 1024.13 1024.41 1024.69 1025.61 1026.45 1026.48 1026.89 1026.96 1026.87 1027.17 1027.78 1028.77 1029.04 1028.74
1018.73 1019.56 1020.34 1021.09 1021.78 1022.46 1022.97 1023.57 1024.12 1024.30 1024.95 1025.59 1026.53 1026.82 1026.87 1026.96 1026.66 1026.92 1027.55 1028.27 1029.12 1029.44
Wind_Speed
7 5 6 6 6 5 5 5 5 5 5 4 4 3 4 3 2 4 3 5 5 4
6 7 6 7 7 6 7 5 5 5 5 5 4 3 4 4 4 4 5 5 5 4
6 8 8 6 7 6 5 6 5 5 6 5 4 5 4 5 3 5 3 4 5 5
7 8 6 6 7 5 5 5 6 7 6 5 5 5 5 4 4 5 5 5 6 7
7 7 6 5 5 5 5 4 5 5 5 5 6 5 4 6 5 6 6 7 7 7
7 8 7 5 6 4 5 5 6 5 6 5 5 5 5 5 6 7 6 7 8 8
10 9 8 7 6 5 6 5 5 6 6 5 4 5 5 5 6 6 6 7 9 8
8 7 8 7 7 6 5 5 6 6 5 5 8 8 8 3 6 6 6 6 9 6
8 8 9 7 6 6 5 6 6 6 6 9 8 8 9 6 7 7 7 6 6 7
9 8 6 8 6 5 5 7 7 9 11 10 7 9 12 15 7 7 5 6 5 5
12 10 10 8 8 8 9 6 6 6 8 9 5 9 9 11 5 4 8 7 5 4
14 13 10 10 10 9 9 8 6 5 7 9 4 7 5 2 4 5 7 5 3 4
12 12 11 11 10 8 8 7 6 6 7 13 6 6 4 4 3 5 4 7 4 9
11 11 11 10 9 8 8 8 7 7 7 9 7 4 4 2 2 4 4 4 5 2
Wind_Direction
106 103 109 97 110 112 107 105 121 106 104 98 76 59 51 66 64 71 36 63 36 327
90 96 98 93 88 97 106 143 120 117 112 106 94 64 87 81 22 55 37 50 36 354
106 99 109 108 110 121 118 106 141 121 110 94 87 68 54 74 39 59 53 49 45 20
94 109 111 114 121 146 127 164 143 122 128 122 98 65 89 103 42 70 63 36 49 22
128 132 110 130 120 131 154 155 119 119 116 102 85 82 74 58 59 53 48 46 48 29
157 148 142 133 122 184 146 124 126 119 108 104 109 109 87 86 76 63 48 53 57 32
165 153 151 165 154 155 136 146 123 103 95 119 112 97 80 86 95 97 77 78 75 59
166 154 153 153 136 124 131 156 121 117 137 100 71 41 15 39 71 66 74 70 98 77
154 159 129 99 134 175 135 106 102 146 120 86 80 59 26 5 89 65 54 45 53 80
142 141 136 147 135 111 116 99 78 86 86 84 86 83 67 65 78 78 67 51 23 55
152 145 143 134 126 104 98 103 104 98 108 105 98 99 94 103 95 89 78 59 20 68
154 153 147 142 135 130 126 133 134 123 122 113 102 120 123 334 117 113 100 90 73 54
154 152 149 144 142 144 150 142 140 138 129 125 117 142 148 9 140 126 122 132 90 65
151 148 145 143 146 149 147 142 144 135 131 125 127 133 140 41 289 129 147 132 106 59